INTELSAT 17 (IS-17)

Last updated on Wed Sep 09 2026 00:02:59 GMT+0000 (Coordinated Universal Time)

1 37238U 10065B 26251.45816655 -.00000022 00000+0 00000+0 0 9994 2 37238 0.0229 227.3817 0002562 299.1219 51.9647 1.00270421 54082
UTC large
Height (km)
Speed (km/s)
/
Latitude / Longitude
Inclination (degrees)
Orbital Period (minutes)
Azimuth
Elevation
Range (km)
Doppler Factor

Next 0 passes for location: London (51.5072 / 0.1276)

No passes found over London.
INTELSAT 17 (IS-17)